�������l�o���
Date,Time,MP-1(��Sv/h),MP-2(��Sv/h),MP-3(��Sv/h),MP-4(��Sv/h),MP-5(��Sv/h),MP-6(��Sv/h),MP-7(��Sv/h),MP-8(��Sv/h),����,����(m/s),���J
2018/03/21,00:00,0.856,1.445,0.896,1.688,1.139,0.479,0.850,0.816,�k�k��,4.6,��
2018/03/21,00:10,0.856,1.443,0.897,1.690,1.139,0.479,0.850,0.816,�k�k��,5.3,��
2018/03/21,00:20,0.857,1.443,0.895,1.691,1.137,0.478,0.850,0.817,�k�k��,5.6,��
2018/03/21,00:30,0.853,1.443,0.896,1.690,1.139,0.480,0.851,0.817,�k�k��,5.6,��
2018/03/21,00:40,0.856,1.443,0.895,1.687,1.140,0.480,0.851,0.817,�k�k��,6.2,�L
2018/03/21,00:50,0.856,1.442,0.897,1.693,1.137,0.480,0.852,0.816,�k�k��,6.1,�L
2018/03/21,01:00,0.856,1.443,0.894,1.691,1.139,0.477,0.850,0.817,�k�k��,4.9,��
2018/03/21,01:10,0.856,1.443,0.894,1.689,1.141,0.479,0.852,0.816,�k�k��,6.1,��
2018/03/21,01:20,0.855,1.442,0.896,1.690,1.140,0.477,0.851,0.817,�k�k��,6.7,��
2018/03/21,01:30,0.855,1.441,0.896,1.688,1.138,0.478,0.850,0.816,�k�k��,5.8,��
2018/03/21,01:40,0.856,1.442,0.894,1.691,1.138,0.480,0.850,0.816,�k�k��,6.0,��
2018/03/21,01:50,0.854,1.445,0.894,1.689,1.139,0.479,0.850,0.816,�k�k��,5.9,�L
2018/03/21,02:00,0.858,1.444,0.895,1.692,1.138,0.480,0.851,0.815,�k�k��,5.4,��
2018/03/21,02:10,0.856,1.443,0.896,1.688,1.138,0.480,0.850,0.816,�k�k��,6.2,��
2018/03/21,02:20,0.856,1.442,0.896,1.688,1.136,0.478,0.850,0.814,�k�k��,6.3,��
2018/03/21,02:30,0.856,1.443,0.896,1.691,1.137,0.479,0.850,0.818,�k�k��,6.2,��
2018/03/21,02:40,0.856,1.444,0.895,1.690,1.137,0.480,0.849,0.817,�k�k��,6.1,��
2018/03/21,02:50,0.854,1.444,0.896,1.692,1.138,0.479,0.850,0.816,�k�k��,6.0,��
2018/03/21,03:00,0.856,1.441,0.896,1.690,1.140,0.479,0.852,0.817,�k�k��,6.3,��
2018/03/21,03:10,0.856,1.441,0.896,1.692,1.137,0.479,0.849,0.816,�k�k��,6.5,��
2018/03/21,03:20,0.856,1.442,0.897,1.691,1.139,0.478,0.850,0.817,�k�k��,6.3,��
2018/03/21,03:30,0.856,1.445,0.896,1.690,1.138,0.480,0.851,0.817,�k�k��,7.6,��
2018/03/21,03:40,0.857,1.444,0.895,1.688,1.138,0.480,0.851,0.817,�k�k��,6.6,��
2018/03/21,03:50,0.856,1.443,0.896,1.689,1.138,0.479,0.849,0.816,�k�k��,7.3,��
2018/03/21,04:00,0.855,1.440,0.895,1.691,1.137,0.479,0.849,0.816,�k�k��,6.3,��
2018/03/21,04:10,0.854,1.445,0.895,1.691,1.136,0.479,0.850,0.817,�k�k��,6.3,��
2018/03/21,04:20,0.859,1.442,0.895,1.690,1.139,0.479,0.851,0.818,�k�k��,6.9,��
2018/03/21,04:30,0.858,1.444,0.895,1.691,1.138,0.478,0.852,0.817,�k�k��,7.7,��
2018/03/21,04:40,0.856,1.445,0.895,1.691,1.139,0.479,0.850,0.817,�k�k��,7.4,��
2018/03/21,04:50,0.857,1.444,0.895,1.691,1.139,0.479,0.852,0.818,�k�k��,6.7,��
2018/03/21,05:00,0.855,1.445,0.894,1.688,1.140,0.479,0.848,0.817,�k�k��,6.4,��
2018/03/21,05:10,0.855,1.444,0.897,1.690,1.139,0.477,0.849,0.816,�k�k��,7.0,��
2018/03/21,05:20,0.855,1.444,0.894,1.691,1.139,0.478,0.852,0.817,�k�k��,6.9,��
2018/03/21,05:30,0.854,1.443,0.893,1.690,1.138,0.479,0.850,0.817,�k�k��,7.3,�L
2018/03/21,05:40,0.856,1.442,0.895,1.690,1.139,0.477,0.852,0.817,�k�k��,6.6,�L
2018/03/21,05:50,0.854,1.446,0.897,1.691,1.137,0.480,0.852,0.816,�k�k��,6.9,��
2018/03/21,06:00,0.856,1.446,0.894,1.692,1.141,0.478,0.850,0.818,�k�k��,7.5,��
2018/03/21,06:10,0.855,1.442,0.895,1.690,1.140,0.479,0.851,0.817,�k�k��,8.1,��
2018/03/21,06:20,0.858,1.442,0.895,1.688,1.136,0.478,0.851,0.818,�k�k��,7.1,��
2018/03/21,06:30,0.856,1.445,0.895,1.691,1.139,0.477,0.850,0.815,�k�k��,7.3,��
2018/03/21,06:40,0.854,1.441,0.893,1.690,1.136,0.477,0.850,0.819,�k�k��,6.8,��
2018/03/21,06:50,0.855,1.443,0.894,1.692,1.139,0.478,0.852,0.818,�k�k��,7.1,��
2018/03/21,07:00,0.855,1.445,0.897,1.693,1.139,0.479,0.850,0.817,�k�k��,7.0,��
2018/03/21,07:10,0.856,1.443,0.897,1.689,1.138,0.477,0.849,0.817,�k�k��,6.8,��
2018/03/21,07:20,0.856,1.445,0.895,1.690,1.140,0.478,0.851,0.817,�k�k��,6.4,��
2018/03/21,07:30,0.857,1.444,0.896,1.690,1.139,0.479,0.849,0.816,�k�k��,6.9,��
2018/03/21,07:40,0.858,1.445,0.896,1.689,1.138,0.479,0.851,0.817,�k�k��,5.9,��
2018/03/21,07:50,0.858,1.443,0.897,1.692,1.138,0.478,0.851,0.817,�k�k��,5.8,��
2018/03/21,08:00,0.856,1.442,0.895,1.690,1.139,0.477,0.851,0.816,�k�k��,6.7,��
2018/03/21,08:10,0.855,1.446,0.894,1.691,1.139,0.479,0.851,0.817,�k�k��,5.7,��
2018/03/21,08:20,0.856,1.440,0.897,1.690,1.139,0.480,0.851,0.817,�k�k��,5.1,��
2018/03/21,08:30,0.856,1.440,0.895,1.693,1.137,0.480,0.851,0.817,�k�k��,5.8,��
2018/03/21,08:40,0.856,1.444,0.894,1.689,1.138,0.479,0.851,0.818,�k�k��,6.2,��
2018/03/21,08:50,0.856,1.442,0.895,1.691,1.137,0.478,0.849,0.816,�k�k��,5.5,��
2018/03/21,09:00,0.858,1.444,0.896,1.693,1.139,0.478,0.850,0.818,�k�k��,5.5,��
2018/03/21,09:10,0.856,1.442,0.893,1.692,1.139,0.479,0.849,0.819,�k�k��,6.5,�L
2018/03/21,09:20,0.855,1.444,0.895,1.692,1.140,0.478,0.851,0.817,�k�k��,5.1,��
2018/03/21,09:30,0.854,1.443,0.896,1.692,1.139,0.479,0.850,0.817,�k�k��,6.3,�L
2018/03/21,09:40,0.857,1.445,0.895,1.691,1.139,0.478,0.851,0.819,�k�k��,5.0,��
2018/03/21,09:50,0.858,1.444,0.894,1.693,1.137,0.478,0.848,0.818,�k�k��,5.9,��
2018/03/21,10:00,0.855,1.444,0.895,1.690,1.141,0.480,0.851,0.816,�k�k��,6.0,�L
2018/03/21,10:10,0.856,1.445,0.896,1.692,1.139,0.479,0.849,0.819,�k�k��,5.7,�L
2018/03/21,10:20,0.857,1.444,0.895,1.691,1.141,0.480,0.852,0.818,�k�k��,4.8,�L
2018/03/21,10:30,0.858,1.444,0.896,1.693,1.139,0.480,0.852,0.817,�k�k��,5.1,��
2018/03/21,10:40,0.856,1.448,0.897,1.692,1.143,0.479,0.850,0.817,�k��,5.3,��
2018/03/21,10:50,0.856,1.444,0.899,1.692,1.140,0.479,0.852,0.817,�k�k��,4.7,��
2018/03/21,11:00,0.858,1.445,0.894,1.694,1.139,0.480,0.850,0.816,�k�k��,5.7,��
2018/03/21,11:10,0.857,1.443,0.897,1.693,1.141,0.481,0.851,0.818,�k�k��,4.6,��
2018/03/21,11:20,0.856,1.449,0.898,1.692,1.140,0.479,0.851,0.816,�k�k��,5.3,�L
2018/03/21,11:30,0.858,1.446,0.895,1.694,1.139,0.479,0.851,0.818,�k�k��,4.4,�L
2018/03/21,11:40,0.859,1.446,0.897,1.693,1.140,0.478,0.851,0.818,�k��,5.0,�L
2018/03/21,11:50,0.859,1.445,0.895,1.694,1.140,0.479,0.850,0.818,�k��,6.1,�L
2018/03/21,12:00,0.858,1.446,0.896,1.693,1.138,0.481,0.853,0.818,�k��,5.3,��
2018/03/21,12:10,0.856,1.448,0.899,1.692,1.139,0.480,0.853,0.820,�k��,5.5,��
2018/03/21,12:20,0.857,1.445,0.899,1.693,1.139,0.481,0.853,0.819,�k�k��,5.4,��
2018/03/21,12:30,0.858,1.448,0.898,1.694,1.138,0.481,0.852,0.818,�k�k��,5.4,��
2018/03/21,12:40,0.857,1.445,0.899,1.695,1.141,0.480,0.853,0.820,�k�k��,4.7,��
2018/03/21,12:50,0.857,1.446,0.895,1.696,1.141,0.480,0.852,0.818,�k�k��,6.0,��
2018/03/21,13:00,0.859,1.445,0.898,1.692,1.143,0.480,0.852,0.818,�k�k��,5.4,��
2018/03/21,13:10,0.860,1.445,0.896,1.695,1.137,0.480,0.852,0.819,�k�k��,5.9,�L
2018/03/21,13:20,0.858,1.444,0.898,1.695,1.140,0.482,0.850,0.820,�k�k��,4.9,�L
2018/03/21,13:30,0.858,1.445,0.902,1.693,1.142,0.481,0.853,0.818,�k�k��,5.5,�L
2018/03/21,13:40,0.859,1.448,0.898,1.695,1.141,0.480,0.854,0.819,�k�k��,5.5,�L
2018/03/21,13:50,0.857,1.444,0.899,1.693,1.140,0.480,0.853,0.819,�k�k��,5.2,�L
2018/03/21,14:00,0.859,1.446,0.901,1.695,1.140,0.482,0.853,0.819,�k�k��,5.3,�L
2018/03/21,14:10,0.859,1.444,0.899,1.693,1.141,0.482,0.851,0.820,�k�k��,4.2,�L
2018/03/21,14:20,0.860,1.445,0.898,1.693,1.139,0.484,0.852,0.819,�k��,4.9,�L
2018/03/21,14:30,0.859,1.443,0.896,1.691,1.136,0.485,0.852,0.816,�k��,4.3,�L
2018/03/21,14:40,0.859,1.441,0.898,1.690,1.133,0.484,0.851,0.818,�k��,4.5,�L
2018/03/21,14:50,0.854,1.431,0.894,1.685,1.129,0.483,0.848,0.814,�k��,3.1,�L
2018/03/21,15:00,0.850,1.422,0.889,1.679,1.125,0.482,0.847,0.815,�k��,3.8,�L
2018/03/21,15:10,0.849,1.417,0.888,1.673,1.119,0.482,0.843,0.812,�k��,4.2,�L
2018/03/21,15:20,0.845,1.412,0.884,1.667,1.115,0.482,0.845,0.812,�k��,5.2,�L
2018/03/21,15:30,0.843,1.405,0.882,1.659,1.111,0.480,0.842,0.809,�k�k��,5.2,�L
2018/03/21,15:40,0.839,1.399,0.879,1.651,1.111,0.481,0.841,0.809,�k��,6.1,�L
2018/03/21,15:50,0.841,1.398,0.878,1.645,1.107,0.479,0.840,0.809,�k��,5.2,�L
2018/03/21,16:00,0.838,1.400,0.876,1.647,1.105,0.478,0.841,0.809,�k��,5.1,�L
2018/03/21,16:10,0.835,1.394,0.874,1.644,1.106,0.475,0.839,0.807,�k��,5.3,�L
2018/03/21,16:20,0.836,1.392,0.870,1.638,1.104,0.476,0.838,0.809,�k��,4.9,�L
2018/03/21,16:30,0.832,1.393,0.866,1.633,1.103,0.476,0.838,0.806,�k��,4.7,�L
2018/03/21,16:40,0.833,1.387,0.870,1.628,1.096,0.476,0.838,0.805,�k��,3.7,�L
2018/03/21,16:50,0.831,1.384,0.868,1.628,1.097,0.477,0.836,0.805,�k�k��,4.5,�L
2018/03/21,17:00,0.828,1.386,0.867,1.625,1.096,0.476,0.835,0.805,�k�k��,4.1,�L
2018/03/21,17:10,0.828,1.380,0.867,1.621,1.094,0.475,0.836,0.804,�k�k��,3.2,�L
2018/03/21,17:20,0.829,1.381,0.867,1.621,1.094,0.476,0.834,0.803,�k�k��,4.3,�L
2018/03/21,17:30,0.828,1.381,0.866,1.622,1.097,0.474,0.836,0.803,�k�k��,4.0,�L
2018/03/21,17:40,0.829,1.379,0.866,1.622,1.093,0.475,0.835,0.802,�k�k��,4.1,�L
2018/03/21,17:50,0.827,1.381,0.868,1.621,1.094,0.474,0.835,0.804,�k�k��,4.4,�L
2018/03/21,18:00,0.826,1.379,0.866,1.617,1.094,0.474,0.835,0.804,�k�k��,3.6,�L
2018/03/21,18:10,0.827,1.377,0.865,1.618,1.093,0.474,0.836,0.805,�k�k��,3.6,�L
2018/03/21,18:20,0.826,1.374,0.865,1.615,1.092,0.475,0.835,0.804,�k�k��,3.6,�L
2018/03/21,18:30,0.825,1.371,0.865,1.612,1.089,0.474,0.835,0.803,�k�k��,3.2,�L
2018/03/21,18:40,0.824,1.371,0.863,1.610,1.086,0.475,0.831,0.803,�k,3.3,�L
2018/03/21,18:50,0.823,1.370,0.864,1.610,1.087,0.474,0.834,0.804,�k�k��,2.5,�L
2018/03/21,19:00,0.824,1.371,0.863,1.611,1.089,0.475,0.833,0.803,�k�k��,3.4,�L
2018/03/21,19:10,0.824,1.370,0.865,1.607,1.086,0.475,0.833,0.802,�k�k��,2.6,�L
2018/03/21,19:20,0.825,1.369,0.865,1.607,1.085,0.475,0.834,0.802,�k�k��,3.3,�L
2018/03/21,19:30,0.822,1.368,0.862,1.606,1.084,0.473,0.831,0.801,�k�k��,2.0,�L
2018/03/21,19:40,0.824,1.368,0.861,1.602,1.082,0.473,0.831,0.801,�k��,2.0,�L
2018/03/21,19:50,0.823,1.369,0.861,1.603,1.082,0.474,0.832,0.800,�k,1.4,�L
2018/03/21,20:00,0.823,1.367,0.863,1.604,1.081,0.474,0.831,0.801,���k��,1.7,�L
2018/03/21,20:10,0.822,1.367,0.861,1.605,1.083,0.473,0.833,0.802,�k�k��,1.4,�L
2018/03/21,20:20,0.820,1.368,0.860,1.602,1.083,0.474,0.831,0.800,�k,1.5,�L
2018/03/21,20:30,0.823,1.366,0.860,1.605,1.081,0.472,0.832,0.801,�k,1.5,�L
2018/03/21,20:40,0.819,1.366,0.861,1.603,1.083,0.473,0.832,0.801,�k�k��,1.1,�L
2018/03/21,20:50,0.822,1.366,0.861,1.604,1.080,0.472,0.832,0.801,�k,1.7,�L
2018/03/21,21:00,0.821,1.365,0.859,1.604,1.081,0.472,0.831,0.800,�k�k��,3.3,�L
2018/03/21,21:10,0.822,1.368,0.858,1.604,1.082,0.472,0.832,0.801,���k��,2.3,�L
2018/03/21,21:20,0.819,1.368,0.859,1.602,1.078,0.471,0.832,0.801,�k�k��,2.0,�L
2018/03/21,21:30,0.821,1.367,0.858,1.602,1.081,0.471,0.832,0.799,��,5.7,�L
2018/03/21,21:40,0.821,1.368,0.857,1.600,1.078,0.472,0.831,0.801,��,6.7,�L
2018/03/21,21:50,0.821,1.366,0.859,1.600,1.078,0.470,0.832,0.799,��,7.5,�L
2018/03/21,22:00,0.822,1.367,0.859,1.600,1.081,0.472,0.833,0.800,���쓌,7.2,�L
2018/03/21,22:10,0.823,1.368,0.859,1.601,1.082,0.472,0.832,0.802,���쓌,6.5,�L
2018/03/21,22:20,0.823,1.366,0.860,1.599,1.079,0.471,0.831,0.800,���쓌,6.1,�L
2018/03/21,22:30,0.820,1.360,0.858,1.599,1.077,0.471,0.831,0.799,���쓌,5.7,�L
2018/03/21,22:40,0.823,1.363,0.858,1.596,1.077,0.471,0.829,0.800,���쓌,5.9,�L
2018/03/21,22:50,0.821,1.362,0.857,1.596,1.076,0.470,0.830,0.800,���쓌,7.0,�L
2018/03/21,23:00,0.822,1.359,0.857,1.595,1.076,0.471,0.827,0.801,���쓌,6.4,�L
2018/03/21,23:10,0.821,1.360,0.858,1.594,1.075,0.471,0.829,0.801,���쓌,7.8,�L
2018/03/21,23:20,0.820,1.360,0.858,1.595,1.076,0.470,0.829,0.799,���쓌,7.8,�L
2018/03/21,23:30,0.823,1.357,0.858,1.595,1.078,0.472,0.828,0.799,���쓌,8.0,�L
2018/03/21,23:40,0.821,1.363,0.858,1.593,1.075,0.472,0.830,0.799,���쓌,6.9,�L
2018/03/21,23:50,0.822,1.360,0.856,1.594,1.076,0.471,0.827,0.802,���쓌,6.9,�L
